Location: Anglesey
(53.1800°N, 4.2200°W)
Time: 22:34:21
(UTC+00:00)

N. Korean satellite - Pass Details

Date: 13 October 2017
Orbit: 461 x 513 km, 97.2° (Epoch: 13 December)

Event Time Altitude Azimuth Distance (km) Brightness Sun altitude
Rises 20:08:09 0° 202° (SSW) 2,544 10.4 -16.2°
Reaches altitude 10° 20:10:39 10° 220° (SW) 1,659 9.7 -16.6°
Maximum altitude 20:13:18 19° 268° (W) 1,186 9.5 -16.9°
Drops below altitude 10° 20:15:55 10° 316° (NW) 1,649 10.0 -17.3°
Sets 20:18:25 0° 335° (NNW) 2,524 10.7 -17.7°
